CSZ838 ZSPD-ZSWZ

Flight info

Callsign CSZ838
Flight time N/A
Altitude 24600
Route HSN W13 TOGUG/K0891S0980 W13 BEGMO
Aircraft B38M/M-SDE1FGHILORVWXY/HB1

Departure

Time 2026-05-04 14:45
Airport Shanghai Pudong International Airport (ZSPD)

Arrival

Time N/A
Airport Wenzhou Longwan International Airport (ZSWZ)
Time Latitude Longitude Altitude Speed Heading
2026-05-04 14:15 31.15568 121.80646 25 ft 0 kts 252°
2026-05-04 14:37 31.15575 121.80671 28 ft 4 kts 252°
2026-05-04 14:38 31.15583 121.80701 29 ft 4 kts 252°
2026-05-04 14:38 31.15590 121.80727 29 ft 4 kts 269°
2026-05-04 14:38 31.15581 121.80750 42 ft 4 kts 330°
2026-05-04 14:38 31.15563 121.80759 26 ft 1 kts 342°
2026-05-04 14:39 31.15559 121.80760 26 ft 0 kts 342°
2026-05-04 14:42 31.15578 121.80752 46 ft 0 kts 337°
2026-05-04 14:42 31.15605 121.80740 46 ft 11 kts 343°
2026-05-04 14:42 31.15692 121.80783 26 ft 14 kts 73°
2026-05-04 14:43 31.15695 121.80849 25 ft 13 kts 88°
2026-05-04 14:43 31.15726 121.80989 28 ft 24 kts 72°
2026-05-04 14:43 31.15748 121.81064 25 ft 12 kts 69°
2026-05-04 14:43 31.15777 121.81144 28 ft 16 kts 70°
2026-05-04 14:44 31.15694 121.81260 24 ft 27 kts 168°
2026-05-04 14:44 31.15305 121.81412 24 ft 96 kts 163°
2026-05-04 14:44 31.14446 121.81732 26 ft 160 kts 161°
2026-05-04 14:44 31.13303 121.82198 471 ft 176 kts 161°
2026-05-04 14:45 31.12327 121.82560 1985 ft 132 kts 166°
2026-05-04 14:45 31.11423 121.82895 2462 ft 149 kts 167°
2026-05-04 14:45 31.10352 121.83350 1822 ft 175 kts 159°
2026-05-04 14:45 31.09249 121.84044 1622 ft 181 kts 149°
2026-05-04 14:46 31.08175 121.84889 1810 ft 194 kts 149°
2026-05-04 14:46 31.07003 121.85813 2047 ft 212 kts 147°
2026-05-04 14:46 31.05750 121.86859 2058 ft 230 kts 147°
2026-05-04 14:46 31.04438 121.87942 2753 ft 226 kts 147°
2026-05-04 14:47 31.03170 121.89018 3936 ft 230 kts 146°
2026-05-04 14:47 31.01806 121.90186 4329 ft 254 kts 145°
2026-05-04 14:47 31.00414 121.91550 4394 ft 266 kts 139°
2026-05-04 14:47 30.99037 121.93029 4527 ft 272 kts 139°
2026-05-04 14:48 30.97634 121.94517 4701 ft 273 kts 139°
2026-05-04 14:48 30.96221 121.96006 4821 ft 274 kts 139°
2026-05-04 14:48 30.94816 121.97500 5247 ft 273 kts 134°
2026-05-04 14:48 30.93820 121.99385 5997 ft 278 kts 106°
2026-05-04 14:49 30.93654 122.01603 6765 ft 277 kts 79°
2026-05-04 14:49 30.94159 122.03746 7495 ft 280 kts 70°
2026-05-04 14:49 30.94741 122.05929 8251 ft 283 kts 70°
2026-05-04 14:49 30.95329 122.08102 9280 ft 276 kts 70°
2026-05-04 14:50 30.95890 122.10170 10617 ft 265 kts 70°
2026-05-04 14:50 30.96280 122.11576 11039 ft 276 kts 70°
2026-05-04 14:50 30.97055 122.14368 11613 ft 301 kts 70°
2026-05-04 14:50 30.97491 122.15942 11895 ft 315 kts 70°
2026-05-04 14:51 30.97970 122.18524 12297 ft 337 kts 86°
2026-05-04 14:51 30.97897 122.20373 12544 ft 352 kts 98°